When you browse on this site, cookies collect data to enhance your experience and personalize the content and advertising you see.
Visit our Privacy Policy to learn more. By continuing to use the site, you agree to this use of cookies and data.
  • In Lithuania
  • List of Countries
  • For 7 days
  • Water Temperature
  • Weather Map
  • Weather Widgets
  • user-avatar
    Login

    Hourly Weather Tiraspol

    Today, 17 November, Sunday

    Time Temperature Precipitation Wind Pressure Humidity
    00:00 +10°C° 0 mm 3 mps 765 mmHg 94%
    01:00 +10°C° 0 mm 2 mps 765 mmHg 94%
    02:00 +10°C° 0 mm 2 mps 765 mmHg 93%
    03:00 +9°C° 0 mm 2 mps 765 mmHg 92%
    04:00 +9°C° 0 mm 2 mps 765 mmHg 92%
    05:00 +8°C° 0 mm 3 mps 766 mmHg 91%
    06:00 +8°C° 0 mm 3 mps 766 mmHg 87%
    07:00 +8°C° 0 mm 3 mps 766 mmHg 83%
    08:00 +7°C° 0 mm 4 mps 766 mmHg 78%
    09:00 +8°C° 0 mm 4 mps 766 mmHg 70%
    10:00 +11°C° 0 mm 4 mps 766 mmHg 62%
    11:00 +12°C° 0 mm 4 mps 765 mmHg 53%
    12:00 +13°C° 0 mm 4 mps 765 mmHg 50%
    13:00 +14°C° 0 mm 4 mps 765 mmHg 48%
    14:00 +15°C° 0 mm 4 mps 765 mmHg 45%
    15:00 +13°C° 0 mm 3 mps 764 mmHg 50%
    16:00 +12°C° 0 mm 3 mps 764 mmHg 55%
    17:00 +11°C° 0 mm 3 mps 764 mmHg 59%
    18:00 +10°C° 0 mm 3 mps 764 mmHg 63%
    19:00 +9°C° 0 mm 3 mps 764 mmHg 67%
    20:00 +9°C° 0 mm 3 mps 764 mmHg 70%
    21:00 +8°C° 0 mm 3 mps 764 mmHg 73%
    22:00 +8°C° 0 mm 3 mps 764 mmHg 76%
    23:00 +7°C° 0 mm 3 mps 764 mmHg 78%

    Tomorrow, 18 November, Monday

    Time Temperature Precipitation Wind Pressure Humidity
    00:00 +7°C° 0 mm 3 mps 764 mmHg 82%
    01:00 +7°C° 0 mm 3 mps 764 mmHg 86%
    02:00 +5°C° 0 mm 3 mps 764 mmHg 89%
    03:00 +5°C° 0 mm 3 mps 763 mmHg 91%
    04:00 +5°C° 0 mm 3 mps 763 mmHg 92%
    05:00 +5°C° 0 mm 3 mps 763 mmHg 93%
    06:00 +7°C° 0 mm 3 mps 763 mmHg 92%
    07:00 +7°C° 0 mm 3 mps 763 mmHg 92%
    08:00 +8°C° 0 mm 3 mps 763 mmHg 91%
    09:00 +9°C° 0 mm 3 mps 763 mmHg 89%
    10:00 +10°C° 0 mm 3 mps 763 mmHg 87%
    11:00 +11°C° 0 mm 4 mps 763 mmHg 84%
    12:00 +12°C° 0 mm 4 mps 763 mmHg 82%
    13:00 +12°C° 0 mm 4 mps 763 mmHg 79%
    14:00 +13°C° 0 mm 4 mps 762 mmHg 76%
    15:00 +13°C° 0 mm 4 mps 762 mmHg 78%
    16:00 +13°C° 0 mm 4 mps 762 mmHg 80%
    17:00 +13°C° 0 mm 4 mps 762 mmHg 82%
    18:00 +12°C° 0 mm 4 mps 762 mmHg 84%
    19:00 +12°C° 0 mm 4 mps 762 mmHg 87%
    20:00 +12°C° 0 mm 3 mps 762 mmHg 90%
    21:00 +12°C° 0 mm 3 mps 762 mmHg 90%
    22:00 +12°C° 0 mm 4 mps 763 mmHg 91%
    23:00 +12°C° 0 mm 4 mps 763 mmHg 92%

    Day after tomorrow, 19 November, Tuesday

    Time Temperature Precipitation Wind Pressure Humidity
    00:00 +12°C° 0 mm 4 mps 763 mmHg 93%
    01:00 +12°C° 0 mm 3 mps 763 mmHg 94%
    02:00 +12°C° 0 mm 3 mps 763 mmHg 94%
    03:00 +13°C° 0 mm 3 mps 763 mmHg 95%
    04:00 +13°C° 0 mm 3 mps 763 mmHg 95%
    05:00 +13°C° 0 mm 3 mps 763 mmHg 96%
    06:00 +13°C° 0 mm 3 mps 764 mmHg 96%
    07:00 +13°C° 0 mm 3 mps 764 mmHg 95%
    08:00 +14°C° 0 mm 2 mps 764 mmHg 95%
    09:00 +14°C° 0 mm 3 mps 764 mmHg 91%
    10:00 +16°C° 0 mm 3 mps 764 mmHg 86%
    11:00 +16°C° 0 mm 3 mps 764 mmHg 82%
    12:00 +17°C° 0 mm 3 mps 764 mmHg 78%
    13:00 +18°C° 0 mm 3 mps 764 mmHg 74%
    14:00 +19°C° 0 mm 3 mps 764 mmHg 70%
    15:00 +17°C° 0 mm 4 mps 764 mmHg 75%
    16:00 +15°C° 0 mm 4 mps 764 mmHg 81%
    17:00 +14°C° 0 mm 5 mps 764 mmHg 86%
    18:00 +13°C° 0 mm 5 mps 764 mmHg 89%
    19:00 +12°C° 0 mm 4 mps 764 mmHg 91%
    20:00 +12°C° 0 mm 4 mps 764 mmHg 94%
    21:00 +11°C° 0 mm 4 mps 764 mmHg 93%
    22:00 +11°C° 0 mm 4 mps 764 mmHg 92%
    23:00 +11°C° 0 mm 4 mps 764 mmHg 91%

    20 November, Wednesday

    Time Temperature Precipitation Wind Pressure Humidity
    00:00 +10°C° 0 mm 4 mps 764 mmHg 88%
    01:00 +10°C° 0 mm 4 mps 764 mmHg 86%
    02:00 +8°C° 0 mm 4 mps 764 mmHg 83%
    03:00 +9°C° 0 mm 3 mps 764 mmHg 82%
    04:00 +8°C° 0 mm 3 mps 764 mmHg 81%
    05:00 +8°C° 0 mm 3 mps 764 mmHg 80%
    06:00 +8°C° 0 mm 3 mps 764 mmHg 78%
    07:00 +8°C° 0 mm 3 mps 764 mmHg 77%
    08:00 +8°C° 0 mm 3 mps 764 mmHg 75%
    09:00 +9°C° 0 mm 3 mps 764 mmHg 68%
    10:00 +10°C° 0 mm 4 mps 764 mmHg 62%
    11:00 +12°C° 0 mm 4 mps 764 mmHg 55%
    12:00 +12°C° 0 mm 4 mps 764 mmHg 53%
    13:00 +13°C° 0 mm 4 mps 763 mmHg 51%
    14:00 +14°C° 0 mm 4 mps 763 mmHg 49%
    15:00 +12°C° 0 mm 4 mps 763 mmHg 52%
    16:00 +11°C° 0 mm 3 mps 763 mmHg 56%
    17:00 +10°C° 0 mm 3 mps 763 mmHg 59%
    18:00 +10°C° 0 mm 3 mps 763 mmHg 62%
    19:00 +8°C° 0 mm 4 mps 763 mmHg 66%
    20:00 +8°C° 0 mm 4 mps 763 mmHg 69%
    21:00 +7°C° 0 mm 4 mps 763 mmHg 72%
    22:00 +7°C° 0 mm 5 mps 764 mmHg 76%
    23:00 +7°C° 0 mm 5 mps 764 mmHg 80%

    21 November, Thursday

    Time Temperature Precipitation Wind Pressure Humidity
    00:00 +7°C° 0 mm 6 mps 764 mmHg 79%
    01:00 +7°C° 0 mm 6 mps 764 mmHg 78%
    02:00 +7°C° 0 mm 6 mps 764 mmHg 77%
    03:00 +7°C° 0 mm 6 mps 764 mmHg 76%
    04:00 +6°C° 0 mm 7 mps 764 mmHg 76%
    05:00 +6°C° 0 mm 7 mps 764 mmHg 75%
    06:00 +6°C° 0 mm 7 mps 764 mmHg 75%
    07:00 +5°C° 0 mm 7 mps 765 mmHg 75%
    08:00 +5°C° 0 mm 7 mps 765 mmHg 74%
    09:00 +5°C° 0 mm 7 mps 765 mmHg 72%
    10:00 +5°C° 0 mm 7 mps 766 mmHg 70%
    11:00 +4°C° 0 mm 7 mps 766 mmHg 68%
    12:00 +4°C° 0 mm 7 mps 766 mmHg 67%
    13:00 +4°C° 0 mm 8 mps 766 mmHg 66%
    14:00 +4°C° 0 mm 8 mps 766 mmHg 66%
    15:00 +2°C° 0 mm 8 mps 766 mmHg 65%
    16:00 +3°C° 0 mm 7 mps 766 mmHg 64%
    17:00 +2°C° 0 mm 7 mps 766 mmHg 63%
    18:00 +2°C° 0 mm 6 mps 767 mmHg 63%
    19:00 +2°C° 0 mm 6 mps 767 mmHg 63%
    20:00 +1°C° 0 mm 6 mps 767 mmHg 63%
    21:00 +1°C° 0 mm 6 mps 767 mmHg 64%
    22:00 +1°C° 0 mm 6 mps 767 mmHg 64%
    23:00 0°C° 0 mm 5 mps 768 mmHg 65%

    22 November, Friday

    Time Temperature Precipitation Wind Pressure Humidity
    00:00 0°C° 0 mm 5 mps 768 mmHg 64%
    01:00 0°C° 0 mm 5 mps 768 mmHg 64%
    02:00 -1°C° 0 mm 5 mps 768 mmHg 63%
    03:00 -1°C° 0 mm 5 mps 768 mmHg 63%
    04:00 -1°C° 0 mm 5 mps 768 mmHg 63%
    05:00 -1°C° 0 mm 5 mps 768 mmHg 62%
    06:00 -2°C° 0 mm 5 mps 768 mmHg 65%
    07:00 -2°C° 0 mm 5 mps 768 mmHg 67%
    08:00 -2°C° 0 mm 5 mps 768 mmHg 69%
    09:00 -1°C° 0 mm 5 mps 768 mmHg 66%
    10:00 0°C° 0 mm 4 mps 769 mmHg 62%
    11:00 +1°C° 0 mm 4 mps 769 mmHg 59%
    12:00 +1°C° 0 mm 4 mps 768 mmHg 57%
    13:00 +1°C° 0 mm 4 mps 768 mmHg 56%
    14:00 +3°C° 0 mm 4 mps 768 mmHg 54%
    15:00 +1°C° 0 mm 4 mps 768 mmHg 57%
    16:00 0°C° 0 mm 4 mps 768 mmHg 60%
    17:00 0°C° 0 mm 3 mps 768 mmHg 63%
    18:00 0°C° 0 mm 3 mps 768 mmHg 66%
    19:00 0°C° 0 mm 3 mps 769 mmHg 68%
    20:00 -1°C° 0 mm 3 mps 769 mmHg 71%
    21:00 -1°C° 0 mm 3 mps 769 mmHg 73%
    22:00 -1°C° 0 mm 2 mps 769 mmHg 75%
    23:00 -2°C° 0 mm 2 mps 769 mmHg 78%
    Show more